FRS28 EDXI-EDLS

Flight info

Callsign FRS28
Flight time 0h 41m
Altitude 2000
Route DIRECT
Aircraft PA44/L-V/N

Departure

Time 2026-04-30 14:06
Airport Nienburg-Holzbalge Airfield (EDXI)

Arrival

Time 2026-04-30 14:47
Airport Stadtlohn-Vreden Airfield (EDLS)
Time Latitude Longitude Altitude Speed Heading
2026-04-30 14:04 52.70975 9.16284 83 ft 0 kts 262°
2026-04-30 14:04 52.70974 9.16271 86 ft 6 kts 262°
2026-04-30 14:05 52.70965 9.16131 91 ft 16 kts 262°
2026-04-30 14:05 52.70952 9.15937 91 ft 16 kts 267°
2026-04-30 14:05 52.70955 9.15810 93 ft 6 kts 274°
2026-04-30 14:05 52.70945 9.15841 92 ft 14 kts 84°
2026-04-30 14:06 52.70987 9.16356 147 ft 66 kts 88°
2026-04-30 14:06 52.71236 9.17925 769 ft 82 kts 46°
2026-04-30 14:07 52.72311 9.17709 1453 ft 100 kts 327°
2026-04-30 14:07 52.72575 9.16559 1594 ft 123 kts 266°
2026-04-30 14:07 52.72548 9.15078 1768 ft 135 kts 269°
2026-04-30 14:08 52.72567 9.11734 2009 ft 159 kts 269°
2026-04-30 14:08 52.72582 9.09894 2007 ft 159 kts 269°
2026-04-30 14:08 52.72599 9.06128 1993 ft 167 kts 269°
2026-04-30 14:09 52.72604 9.04233 2029 ft 167 kts 271°
2026-04-30 14:09 52.72613 9.02254 1999 ft 173 kts 268°
2026-04-30 14:09 52.72636 8.98465 2010 ft 164 kts 269°
2026-04-30 14:10 52.72641 8.96568 2002 ft 162 kts 269°
2026-04-30 14:10 52.72646 8.94716 2005 ft 163 kts 267°
2026-04-30 14:10 52.72651 8.92816 1987 ft 163 kts 269°
2026-04-30 14:10 52.72654 8.90915 1990 ft 171 kts 268°
2026-04-30 14:11 52.72662 8.88997 2024 ft 168 kts 270°
2026-04-30 14:11 52.72668 8.86994 1986 ft 176 kts 266°
2026-04-30 14:11 52.72674 8.85032 1986 ft 168 kts 269°
2026-04-30 14:11 52.72679 8.83119 2013 ft 169 kts 269°
2026-04-30 14:12 52.72684 8.81152 1985 ft 172 kts 270°
2026-04-30 14:12 52.72693 8.79201 2011 ft 168 kts 269°
2026-04-30 14:12 52.72696 8.77255 1993 ft 174 kts 270°
2026-04-30 14:12 52.72701 8.75905 1971 ft 177 kts 270°
2026-04-30 14:13 52.72727 8.73275 1991 ft 167 kts 269°
2026-04-30 14:13 52.72728 8.71384 1992 ft 166 kts 269°
2026-04-30 14:13 52.72731 8.69475 2015 ft 171 kts 269°
2026-04-30 14:13 52.72740 8.67496 2003 ft 174 kts 267°
2026-04-30 14:14 52.72750 8.65519 1996 ft 168 kts 269°
2026-04-30 14:14 52.72756 8.63630 1997 ft 164 kts 269°
2026-04-30 14:14 52.72759 8.61738 2009 ft 166 kts 269°
2026-04-30 14:14 52.72762 8.60456 1999 ft 165 kts 272°
2026-04-30 14:15 52.72777 8.57926 1987 ft 167 kts 268°
2026-04-30 14:15 52.72775 8.56023 2003 ft 167 kts 271°
2026-04-30 14:15 52.72786 8.54125 2006 ft 165 kts 269°
2026-04-30 14:15 52.72791 8.52862 1998 ft 164 kts 269°
2026-04-30 14:16 52.72797 8.50965 1993 ft 162 kts 269°
2026-04-30 14:16 52.72796 8.49133 1994 ft 164 kts 269°
2026-04-30 14:16 52.72807 8.47267 2007 ft 163 kts 268°
2026-04-30 14:16 52.72819 8.45350 1989 ft 166 kts 269°
2026-04-30 14:17 52.72831 8.43460 1984 ft 165 kts 269°
2026-04-30 14:17 52.72833 8.41571 1992 ft 167 kts 268°
2026-04-30 14:17 52.72835 8.39659 2003 ft 167 kts 268°
2026-04-30 14:17 52.72841 8.37731 2011 ft 166 kts 269°
2026-04-30 14:18 52.72853 8.35815 2010 ft 172 kts 269°
2026-04-30 14:18 52.72864 8.33797 1995 ft 175 kts 268°
2026-04-30 14:18 52.72896 8.29822 2003 ft 168 kts 269°
2026-04-30 14:19 52.72919 8.25937 2004 ft 168 kts 267°
2026-04-30 14:19 52.72917 8.23991 1999 ft 168 kts 268°
2026-04-30 14:19 52.72942 8.22064 2010 ft 169 kts 268°
2026-04-30 14:20 52.72953 8.20098 1991 ft 173 kts 271°
2026-04-30 14:20 52.73003 8.18121 1993 ft 176 kts 271°
2026-04-30 14:20 52.72584 8.14410 1984 ft 160 kts 226°
2026-04-30 14:21 52.71849 8.13049 2010 ft 157 kts 221°
2026-04-30 14:21 52.71115 8.11679 1990 ft 160 kts 225°
2026-04-30 14:21 52.69608 8.08855 1995 ft 166 kts 224°
2026-04-30 14:22 52.68842 8.07458 2006 ft 163 kts 223°
2026-04-30 14:22 52.67353 8.04679 2017 ft 163 kts 221°
2026-04-30 14:22 52.66603 8.03275 1987 ft 163 kts 223°
2026-04-30 14:23 52.65120 8.00485 1988 ft 162 kts 222°
2026-04-30 14:23 52.63618 7.97669 1990 ft 162 kts 223°
2026-04-30 14:24 52.62135 7.94899 1983 ft 165 kts 222°
2026-04-30 14:24 52.61382 7.93479 1978 ft 160 kts 223°
2026-04-30 14:25 52.59914 7.90755 1983 ft 159 kts 221°
2026-04-30 14:25 52.58469 7.88049 1984 ft 158 kts 223°
2026-04-30 14:26 52.57019 7.85330 1976 ft 158 kts 223°
2026-04-30 14:26 52.56293 7.83965 1987 ft 160 kts 221°
2026-04-30 14:26 52.54781 7.81170 1972 ft 161 kts 223°
2026-04-30 14:27 52.54024 7.79764 1945 ft 166 kts 223°
2026-04-30 14:27 52.53284 7.78379 1958 ft 160 kts 223°
2026-04-30 14:27 52.52548 7.77000 1951 ft 162 kts 224°
2026-04-30 14:28 52.51064 7.74225 1960 ft 161 kts 222°
2026-04-30 14:28 52.50349 7.72877 1954 ft 157 kts 222°
2026-04-30 14:28 52.49618 7.71518 1974 ft 157 kts 223°
2026-04-30 14:28 52.48896 7.70170 1965 ft 158 kts 224°
2026-04-30 14:29 52.47429 7.67448 1999 ft 161 kts 223°
2026-04-30 14:29 52.45926 7.64646 1970 ft 163 kts 223°
2026-04-30 14:30 52.43689 7.60461 1958 ft 161 kts 224°
2026-04-30 14:31 52.42277 7.57611 1953 ft 164 kts 229°
2026-04-30 14:31 52.40969 7.54575 1966 ft 167 kts 228°
2026-04-30 14:31 52.40306 7.53024 1952 ft 166 kts 231°
2026-04-30 14:32 52.38982 7.49930 1940 ft 166 kts 228°
2026-04-30 14:32 52.38330 7.48405 1947 ft 164 kts 229°
2026-04-30 14:32 52.37673 7.46900 1944 ft 165 kts 229°
2026-04-30 14:33 52.37015 7.45355 1944 ft 164 kts 229°
2026-04-30 14:33 52.35712 7.42273 1942 ft 164 kts 230°
2026-04-30 14:33 52.35072 7.40777 1933 ft 161 kts 229°
2026-04-30 14:34 52.34426 7.39255 1954 ft 162 kts 229°
2026-04-30 14:34 52.33684 7.37877 1946 ft 162 kts 218°
2026-04-30 14:34 52.32880 7.36587 1972 ft 163 kts 218°
2026-04-30 14:34 52.32071 7.35279 1948 ft 162 kts 218°
2026-04-30 14:35 52.30457 7.32637 1942 ft 165 kts 219°
2026-04-30 14:35 52.29646 7.31311 1955 ft 164 kts 218°
2026-04-30 14:35 52.28838 7.29987 1934 ft 165 kts 218°
2026-04-30 14:36 52.28021 7.28659 1941 ft 164 kts 218°
2026-04-30 14:36 52.27211 7.27350 1955 ft 165 kts 217°
2026-04-30 14:36 52.26380 7.26001 1922 ft 167 kts 217°
2026-04-30 14:36 52.25568 7.24673 1938 ft 166 kts 218°
2026-04-30 14:37 52.24776 7.23358 1947 ft 162 kts 218°
2026-04-30 14:37 52.23980 7.22058 1943 ft 163 kts 218°
2026-04-30 14:37 52.23166 7.20734 1931 ft 167 kts 218°
2026-04-30 14:37 52.22369 7.19420 1936 ft 162 kts 218°
2026-04-30 14:38 52.21567 7.18102 1945 ft 162 kts 218°
2026-04-30 14:38 52.20776 7.16800 1932 ft 163 kts 219°
2026-04-30 14:38 52.19983 7.15508 1938 ft 161 kts 219°
2026-04-30 14:38 52.19187 7.14205 1923 ft 162 kts 218°
2026-04-30 14:39 52.18403 7.12919 1945 ft 161 kts 218°
2026-04-30 14:39 52.17607 7.11627 1942 ft 164 kts 218°
2026-04-30 14:39 52.16804 7.10309 1925 ft 161 kts 218°
2026-04-30 14:40 52.15214 7.07722 1933 ft 165 kts 218°
2026-04-30 14:40 52.14412 7.06413 1934 ft 161 kts 219°
2026-04-30 14:40 52.13625 7.05112 1950 ft 161 kts 218°
2026-04-30 14:40 52.12834 7.03802 1928 ft 161 kts 217°
2026-04-30 14:41 52.12030 7.02482 1845 ft 167 kts 218°
2026-04-30 14:41 52.11222 7.01137 1717 ft 165 kts 218°
2026-04-30 14:41 52.10430 6.99826 1599 ft 161 kts 219°
2026-04-30 14:41 52.09661 6.98552 1466 ft 157 kts 218°
2026-04-30 14:42 52.08969 6.97175 1345 ft 159 kts 230°
2026-04-30 14:42 52.08338 6.95682 1210 ft 161 kts 229°
2026-04-30 14:42 52.07715 6.94190 1132 ft 153 kts 230°
2026-04-30 14:42 52.07136 6.92807 1128 ft 147 kts 230°
2026-04-30 14:43 52.06568 6.91467 1125 ft 141 kts 229°
2026-04-30 14:43 52.06011 6.90155 1127 ft 143 kts 225°
2026-04-30 14:43 52.05393 6.88943 1125 ft 139 kts 220°
2026-04-30 14:43 52.04755 6.87701 1117 ft 143 kts 221°
2026-04-30 14:44 52.04149 6.86517 1290 ft 129 kts 225°
2026-04-30 14:44 52.03665 6.85302 1298 ft 129 kts 229°
2026-04-30 14:44 52.03184 6.84117 1308 ft 126 kts 227°
2026-04-30 14:44 52.02731 6.82990 1256 ft 110 kts 227°
2026-04-30 14:45 52.02324 6.82018 1229 ft 98 kts 224°
2026-04-30 14:45 52.01920 6.81135 1071 ft 96 kts 221°
2026-04-30 14:45 52.01522 6.80315 890 ft 87 kts 220°
2026-04-30 14:45 52.01063 6.80249 651 ft 67 kts 136°
2026-04-30 14:46 52.00691 6.80602 592 ft 60 kts 139°
2026-04-30 14:46 52.00361 6.81013 518 ft 60 kts 130°
2026-04-30 14:46 52.00122 6.81530 422 ft 53 kts 116°
2026-04-30 14:46 52.00016 6.81891 383 ft 53 kts 114°
2026-04-30 14:47 51.99824 6.82714 262 ft 60 kts 105°
2026-04-30 14:47 51.99713 6.83303 174 ft 52 kts 104°
2026-04-30 14:47 51.99631 6.83765 160 ft 34 kts 104°
2026-04-30 14:47 51.99582 6.84066 159 ft 23 kts 105°
2026-04-30 14:48 51.99547 6.84270 160 ft 16 kts 107°
2026-04-30 14:48 51.99514 6.84424 161 ft 13 kts 103°
2026-04-30 14:48 51.99535 6.84541 160 ft 11 kts 46°
2026-04-30 14:48 51.99586 6.84633 160 ft 10 kts 63°
2026-04-30 14:49 51.99589 6.84710 160 ft 3 kts 105°
2026-04-30 14:49 51.99587 6.84719 160 ft 0 kts 105°